CAPE
934 678 1400 994 653 962 637 621 266 591 406 503 0 11 10 540 1012 74 244 174 453 832 630 448 234 210 256 137 105 321 172 29 74 12 13 102 132 170 404 252 317 425 478 704 939 1032 892 1146 1522 2114 1543 1098 1661 1648 1769 2035 2160 2413 2772 3093 3280 3347 3270 3286 3231 3296 3341 3404 3330 3401 3385 3317 3251 3223 3214 3152 2984 2888 2829 2820 2802 2788 2686 2536 2535 2476 2406 2465 2434 2415 2035 1998 2260 2459 2399 2356 2205
844 1309 1100 908 882 801 1035 1055 732 474 323 55 0 0 4 316 110 89 214 121 228 721 544 350 323 522 604 436 306 235 152 291 669 178 83 262 358 527 308 326 428 475 507 726 923 1088 1270 1536 2180 2124 2126 1784 1868 2030 2058 2178 2276 2638 2951 3182 3319 3285 3204 3288 3300 3311 3346 3284 3340 3348 3342 3310 3236 3172 3184 3065 2832 2734 2688 2647 2738 2762 2795 2581 2564 2399 2362 2394 2243 2286 1773 2127 2013 2410 2424 2115 2072
1230 1216 963 958 920 851 968 930 412 160 0 0 0 0 18 26 31 105 134 135 212 720 594 430 406 411 422 202 218 613 90 351 336 111 304 360 389 533 450 360 464 542 712 868 916 1206 1306 1618 1894 2148 2062 2037 2323 2436 2252 2282 2592 2919 3067 3177 3246 3136 3034 3188 3266 3322 3262 3234 3153 3236 3271 3312 3215 3163 3054 2780 2656 2578 2596 2635 2580 2551 2518 2412 2166 2140 2260 2568 2416 2482 2244 2149 2372 2281 2393 2327 2125
1266 973 822 942 974 930 892 536 350 146 0 0 0 0 81 54 51 116 149 302 472 628 617 363 392 174 424 314 312 333 174 222 136 164 202 376 382 555 432 536 821 695 788 914 1057 1354 1346 1668 1733 1389 1658 2228 2387 2322 2279 2344 2782 3088 3113 3124 3025 2958 3158 3190 3266 3267 3225 3161 3110 3074 3142 3190 3197 3056 2764 2586 2508 2561 2648 2614 2575 2610 2593 2376 2385 2205 2359 2353 2434 2565 2661 2536 2487 2488 2465 2367 2382
1310 1050 942 1088 1121 774 537 422 340 193 8 0 5 0 142 75 34 259 424 416 472 535 572 393 433 368 520 448 450 388 182 263 220 187 209 519 577 568 591 788 772 778 818 960 1190 1366 1408 2012 1534 1618 1656 2223 2260 2281 2555 2669 2957 3076 3098 3144 3186 3150 3112 3190 3296 3312 3234 3168 3110 3075 3026 3157 3086 2882 2627 2558 2449 2550 2629 2598 2462 2602 2563 2702 2452 2251 2299 2250 2454 2462 2698 2429 2568 2459 2477 2477 2297
1196 883 1068 1327 1007 854 716 453 549 356 5 0 5 0 18 53 65 542 516 331 480 286 416 400 438 447 460 454 435 443 292 228 210 262 360 471 651 659 831 968 794 852 930 1131 1289 1336 1517 1694 1798 2010 2198 1988 2192 2356 2547 2752 2736 2903 3068 3171 3190 3122 3148 3248 3306 3299 3264 3232 3093 2962 2945 2927 2938 2788 2650 2573 2709 2650 2640 2550 2508 2585 2638 2776 2570 2401 2614 2418 2248 2549 2708 2562 2420 2650 2546 2427 2382
928 993 1228 1253 1140 1216 805 444 194 299 156 3 15 6 26 4 271 468 548 586 530 385 293 383 254 316 625 370 357 320 316 528 298 294 525 572 723 824 870 831 839 906 1022 1224 1390 1406 1499 1846 1722 1807 2032 1912 2241 2413 2557 2679 2706 2956 3186 3239 3266 3230 3268 3225 3294 3279 3126 3071 2982 2954 2883 2920 2868 2789 2765 2776 2738 2756 2673 2480 2536 2637 2856 2839 2799 2793 2712 2590 2828 2546 2801 2581 2636 2585 2368 2298 2413
936 1077 1072 784 670 651 530 470 306 375 313 24 54 13 11 154 545 524 583 560 590 548 388 188 280 598 611 620 485 461 684 630 516 561 592 648 797 863 808 834 869 897 1020 1274 1492 1478 1978 2216 2036 2039 2042 1937 2254 2369 2606 2662 2726 2996 3069 3109 3204 3202 3209 3220 3291 3180 2990 2878 2874 2883 2851 2890 2852 2868 2806 2800 2748 2722 2711 2703 2518 2810 2823 2778 2792 2901 2863 2723 2586 2730 2602 2618 2596 2529 2488 2270 2240
918 791 919 794 786 443 571 526 371 294 353 293 308 115 565 484 570 558 539 510 531 515 484 486 494 374 628 643 646 711 697 702 646 771 594 700 798 806 813 833 856 922 1037 1266 1555 1734 1834 2150 2141 2246 2034 2128 2351 2386 2540 2630 2739 2872 2937 2975 3117 3167 3148 3181 3237 3090 2940 2936 2839 2831 2840 2856 2894 2874 2850 2774 2646 2704 2658 2724 2800 2930 2882 2904 2964 2837 2842 2864 2730 2678 2556 2603 2528 2470 2387 2297 2274
878 789 818 830 593 535 386 132 49 15 265 392 369 258 531 567 609 570 545 490 321 408 476 487 416 462 632 523 632 878 719 713 655 593 579 673 766 759 745 826 879 904 1027 1232 1538 1676 1744 1699 1984 2003 2042 2243 2441 2264 2382 2614 2674 2736 2817 2908 2988 2936 2958 2956 2895 2912 2976 2894 2900 2889 2827 2836 2926 2875 2821 2752 2784 2681 2577 2688 2712 2594 2786 2850 2934 2856 2928 2723 2791 2623 2448 2393 2523 2674 2684 2536 2268
921 730 679 618 509 478 316 67 19 9 32 15 330 452 560 629 629 608 561 409 466 564 662 612 633 590 621 658 789 924 746 617 552 546 596 646 676 716 674 706 820 869 1002 1165 1488 1730 1702 1820 1894 2002 2131 2236 2423 2517 2585 2579 2608 2736 2746 2822 2915 2925 2910 2919 2916 2844 2944 3048 2957 2937 2819 2879 2918 2922 2773 2816 2807 2720 2477 2542 2533 2667 2563 2602 2960 3040 2874 3074 2951 2542 2562 2617 2510 2584 2489 2403 2340
981 798 643 431 292 338 390 283 222 36 3 2 26 486 584 664 622 598 560 393 639 685 772 630 663 582 656 620 718 906 661 609 566 509 538 566 636 707 714 736 782 842 957 1084 1544 1752 1834 1895 2314 2052 2095 2280 2533 2530 2422 2505 2575 2719 2803 2824 2835 2939 2930 2884 2838 2888 2930 2960 2936 2878 2885 2878 2917 2879 2826 2806 2750 2620 2402 2617 2713 2756 2659 2865 2778 3151 3114 3223 2973 2670 2626 2702 2674 2661 2485 2474 2480
794 663 712 669 804 624 541 390 278 277 218 0 0 450 638 624 630 615 546 465 675 695 702 781 666 550 450 716 967 796 697 630 590 502 503 553 615 698 739 705 747 795 897 1173 1569 1744 1764 1880 2202 2268 2032 2211 2486 2684 2531 2590 2704 2736 2806 2866 2863 2903 2918 2828 2793 2879 2918 3013 2966 2874 2845 2876 2844 2853 2890 3054 2851 2720 2538 2529 2640 2718 3006 3086 3025 3012 3231 2940 2886 2739 2630 2676 2606 2515 2599 2658 2525
798 700 827 944 727 717 677 443 262 134 0 0 71 451 581 611 614 621 536 624 703 626 743 818 631 719 750 808 966 791 710 638 567 523 486 511 626 726 770 759 781 841 990 1232 1514 1763 1912 1920 2082 2248 2220 2065 2230 2517 2624 2751 2678 2704 2814 2902 2972 2903 2902 2818 2721 2797 2875 2931 2953 2932 2886 2924 2908 2960 3007 3158 3144 2924 2568 2295 2616 2954 2930 3112 3182 3104 3234 2969 2983 2782 2654 2646 2604 2412 2524 2607 2407
620 852 1062 953 1006 895 548 280 68 15 37 0 374 491 556 596 638 638 595 628 712 996 898 728 797 277 483 705 752 700 728 618 578 456 416 509 646 780 794 800 852 938 1134 1286 1439 1794 1967 2038 2024 2125 2238 2162 2250 2176 2237 2582 2656 2662 2739 2846 2982 2912 2862 2864 2852 2808 2867 2916 2901 2996 2955 2929 2869 3100 3110 3142 3248 2909 2419 2330 2522 2647 2800 2700 2912 2982 3189 3114 2895 2821 2294 2320 2230 2433 2357 2681 2480
576 689 1068 1234 1195 728 375 102 16 0 1 43 479 548 621 594 641 694 684 698 808 968 780 858 749 740 590 556 560 730 707 618 516 377 411 569 768 828 801 817 884 1054 1212 1311 1454 1749 1966 1996 2112 2026 1967 2140 2274 2098 1940 2086 2427 2608 2672 2868 2936 2824 2819 2787 2684 2666 2622 2848 2897 3024 2924 3119 2986 3024 3067 3268 3257 2977 2541 2636 2727 2637 2717 2774 2905 3048 3016 3136 3094 2938 2506 2340 2317 2457 2218 2190 2173
574 902 1028 1093 836 535 424 13 0 0 0 156 571 590 688 802 762 783 914 981 992 942 840 818 748 712 702 658 784 752 692 586 412 378 462 704 843 846 854 832 904 1087 1243 1317 1473 1649 1880 2044 2030 1941 1830 2110 2152 2077 1925 1989 2302 2531 2626 2806 2893 2804 2727 2642 2539 2504 2656 2512 2730 2786 2828 3204 2681 2880 3048 2846 3375 3702 3094 3003 2768 2622 2793 2722 2803 2812 2890 3059 2912 3045 2430 2380 2523 2486 2088 2148 2206
758 1212 1035 926 982 800 465 16 0 0 168 407 627 630 738 889 832 927 990 988 1004 876 928 876 812 818 778 815 789 761 656 490 382 399 552 858 850 858 838 858 913 962 1124 1316 1545 1680 1815 1988 1984 1996 1970 2132 2069 2120 2006 1917 2236 2452 2219 2394 2830 2661 2547 2422 2642 2368 2484 2396 2518 2725 2783 3000 2684 2656 2652 3548 3361 3566 3447 3213 3072 2923 2966 2916 2824 3024 3006 2874 2888 2716 2776 2477 2418 2566 2100 2088 1892
1224 1344 1237 1201 970 953 522 180 0 1 152 480 643 672 760 847 850 956 979 993 957 857 872 846 955 880 863 853 792 736 578 405 378 419 672 888 886 806 779 833 841 903 1038 1311 1590 1800 1818 1934 2032 2047 2054 2155 2076 2090 2041 1919 2024 2267 2120 2272 2446 2730 2674 2723 2338 2697 2247 2200 2497 2460 2842 2699 2848 2594 2772 3096 3580 3369 3374 3290 3176 3121 3235 2804 3037 2806 2600 2523 2823 2715 2661 2431 2650 2908 2318 1907 2404
1435 1395 1318 1171 1024 689 422 32 228 86 0 499 639 705 752 873 882 986 942 1014 920 840 838 872 979 950 952 883 802 708 521 388 380 437 787 870 888 792 754 804 812 898 966 1233 1564 1855 1907 2008 2183 2235 2079 2140 2076 1997 2036 1967 1984 2146 2124 2190 2174 2388 2380 2590 2289 2465 2254 2312 2520 2446 2588 2660 2896 2684 3434 3288 3152 3422 3076 3754 3707 3692 3788 3849 3703 3688 3787 3908 3293 3820 3446 3052 3500 3588 3132 3173 2597
1517 1330 1237 1137 721 744 538 271 138 23 8 552 636 720 742 892 936 916 902 942 857 829 857 825 977 1004 984 939 840 700 536 433 385 492 876 882 910 827 740 760 800 874 972 1205 1523 1790 1900 1967 2194 2254 2135 2076 2050 1929 1960 1986 1958 2151 2056 2132 2128 2219 2189 2393 2302 2444 2390 2436 2464 2528 2554 2679 2768 2682 2624 2605 2820 2914 2769 2803 2942 2971 2756 2600 3328 2798 2688 2822 3408 2785 2729 3275 2880 2739 3087 2812 2576
1389 1424 1392 1099 774 770 581 392 2 0 53 600 666 672 727 890 938 878 902 740 778 804 890 834 974 1067 1024 987 905 774 622 526 418 585 929 940 956 902 785 710 759 911 1058 1180 1415 1682 1809 1890 2087 2158 2068 2007 1982 1918 1947 2067 1982 2080 2049 2040 2093 2118 2200 2313 2304 2349 2440 2485 2498 2543 2648 2648 2642 2652 2649 2621 2569 2660 2727 2724 2802 2877 2758 2640 2942 2672 2342 2363 2594 2622 2622 2875 2914 2410 2488 2582 2534
1014 803 1030 1212 1194 1024 687 320 2 33 296 574 694 671 728 874 949 910 846 569 600 738 873 822 1053 1127 1070 1019 965 890 758 625 477 706 939 986 998 962 857 722 737 910 1121 1152 1323 1501 1688 1754 1978 2100 2082 1993 1950 1909 1944 2088 2050 2045 2049 2039 2106 2144 2198 2254 2334 2295 2429 2507 2518 2559 2647 2649 2625 2627 2636 2592 2435 2388 2474 2508 2598 2717 2741 2566 2644 2460 2254 2300 2499 2693 2674 2627 2307 2034 1676 1916 1954
742 646 461 402 267 155 46 15 0 0 165 553 610 638 786 867 937 888 805 553 590 706 882 908 1098 1156 1108 1075 1008 982 886 757 611 820 988 1034 1049 1039 943 809 712 848 1050 1109 1218 1342 1638 1634 1846 2045 2044 1982 1992 1912 1959 1984 2097 2042 2053 2418 2344 2153 2210 2262 2321 2344 2388 2508 2564 2568 2826 2633 2608 2572 2575 2558 2486 2390 2403 2455 2481 2569 2665 2580 2434 2300 2386 2465 2579 2622 2573 2416 2118 1830 1855 1558 1697
672 589 446 379 296 78 62 14 0 0 5 400 515 666 820 853 876 882 810 676 762 831 910 1063 1190 1210 1144 1124 1065 1050 966 865 810 933 1018 1059 1082 1102 1042 918 771 814 976 1067 1138 1243 1386 1542 1666 1866 1931 2011 1968 1968 1922 1934 2056 2014 2074 2210 2294 2468 2296 2229 2320 2406 2448 2498 2548 2552 2528 2549 2571 2515 2476 2400 2288 2252 2307 2358 2381 2444 2485 2514 2367 2097 2120 2298 2369 2513 2492 2077 1909 1889 1543 1874 1906
286 396 356 306 264 80 1 0 0 0 5 0 346 525 727 852 760 827 830 746 840 954 1037 1128 1224 1233 1190 1152 1112 1108 1018 960 964 1025 1070 1094 1135 1133 1103 1020 864 796 892 1030 1090 1170 1279 1404 1537 1676 1768 1803 1886 1856 1849 1827 1990 2041 1991 2085 2184 2458 2316 2219 2274 2364 2451 2474 2464 2487 2485 2441 2495 2468 2350 2111 1866 1994 2092 2229 2288 2284 2324 2347 2280 2085 2014 1868 2060 2143 1922 1890 2108 1696 1611 1664 2105
42 108 84 79 64 12 2 0 0 5 1 6 56 366 580 729 664 799 766 780 970 1057 1097 1152 1224 1207 1167 1127 1118 1119 1031 1025 1066 1097 1106 1130 1167 1164 1146 1064 957 820 861 969 1042 1098 1262 1325 1418 1540 1633 1765 1706 1758 1729 1728 1805 1942 1890 1976 2082 2182 2266 2218 2222 2270 2351 2394 2368 2361 2413 2407 2352 2297 2185 1987 1803 1806 1922 2044 2128 2154 2119 2147 2096 1917 1948 1932 1790 1736 1801 1896 1814 1484 1599 1495 1728
18 9 0 0 0 0 0 0 3 6 0 0 19 39 396 638 613 618 731 945 1048 1108 1123 1175 1186 1176 1148 1141 1129 1122 1082 1077 1090 1113 1159 1160 1197 1183 1172 1107 999 868 811 873 961 1020 1141 1288 1341 1413 1494 1608 1595 1579 1659 1610 1644 1766 1814 1880 1932 1988 2084 2149 2138 2135 2198 2244 2262 2220 2232 2304 2488 2285 2150 1973 1856 1886 1964 2049 2104 2132 2057 1960 1857 1787 1832 2256 1808 1720 1805 1928 1579 1660 1673 1330 1254
0 0 0 0 0 0 0 6 9 4 2 0 13 74 274 537 600 530 713 942 1082 1117 1136 1168 1155 1132 1139 1164 1142 1131 1112 1108 1133 1140 1167 1174 1202 1191 1198 1137 1036 886 801 805 848 934 1112 1266 1278 1309 1373 1483 1505 1492 1510 1518 1492 1551 1680 1741 1752 1726 1776 1905 1965 1975 2001 2048 2054 2023 1965 2062 2321 2372 2289 2186 2337 2048 2094 2138 2165 2117 2019 1918 1758 1836 1889 2053 1948 1886 1800 2176 1699 2272 1662 1147 1264
0 0 0 0 0 0 0 6 16 8 9 0 0 86 152 350 471 542 892 963 1038 1125 1164 1148 1134 1120 1135 1142 1139 1139 1112 1128 1154 1159 1176 1174 1172 1201 1188 1153 1077 922 813 768 768 892 1111 1322 1370 1250 1288 1337 1456 1396 1392 1418 1383 1347 1428 1501 1614 1525 1524 1690 1790 1759 1854 1800 1833 1848 1814 1866 2174 2116 2176 2199 2157 2134 2114 2112 2126 2006 1824 1783 1508 1858 1886 1998 1962 1768 1922 1975 2456 1607 1391 1095 733
0 0 0 0 0 0 0 1 10 10 2 0 0 0 0 1 293 718 906 993 1006 1092 1164 1149 1128 1127 1145 1150 1136 1135 1128 1138 1156 1165 1158 1154 1134 1160 1163 1149 1097 952 786 729 743 849 1222 1299 1392 1288 1467 1246 1537 1346 1461 1332 1324 1266 1229 1255 1355 1412 1426 1508 1600 1642 1638 1640 1614 1630 1733 1872 2108 2030 2068 2096 2106 2056 1972 1928 1937 1810 1662 1514 1510 1735 1737 1848 1825 1815 1956 1926 1686 1320 1195 1026 552
0 0 0 0 0 0 0 0 0 0 0 0 0 0 0 0 0 789 917 956 985 1011 1143 1158 1139 1139 1162 1156 1142 1157 1152 1145 1157 1152 1138 1132 1115 1133 1104 1113 1083 987 791 720 705 849 1140 1274 1504 1330 1417 1223 1273 1366 1325 1306 1388 1285 1181 1362 1201 1416 1500 1438 1497 1544 1551 1547 1556 1488 1565 1808 2058 2020 2032 2090 2099 2009 1908 1872 1908 1668 1467 1561 1513 1623 1715 1896 1843 1881 1932 1949 1830 1306 1230 472 212
0 0 0 0 0 0 0 0 0 0 0 0 0 0 0 0 0 750 901 948 928 960 1096 1142 1138 1161 1174 1160 1136 1146 1162 1162 1172 1162 1144 1125 1120 1124 1119 1110 1084 1035 860 760 744 884 1107 1275 1695 1347 1358 1257 1177 1308 1318 1312 1362 1356 1243 1249 1250 1391 1456 1482 1473 1469 1510 1487 1464 1470 1514 1713 2092 1973 2010 2085 2087 2032 1886 1876 1672 1328 1598 1664 1554 1606 1808 1804 1812 1844 1952 1997 1787 1366 911 513 259
0 0 0 0 0 0 0 0 0 0 0 0 0 0 0 0 72 817 895 918 878 896 1016 1085 1116 1148 1172 1155 1124 1135 1152 1168 1178 1189 1188 1168 1163 1152 1163 1260 1133 1053 954 882 851 925 1073 1288 1507 1388 1358 1290 1173 1248 1331 1354 1414 1438 1372 1234 1506 1341 1445 1482 1472 1485 1494 1471 1455 1466 1499 1682 2105 1970 1981 2038 2068 2024 1926 1852 1588 1458 1718 1693 1626 1659 1747 1741 1724 1776 1850 1790 1751 1342 779 490 332
0 0 0 0 0 0 0 0 0 0 0 0 0 0 0 116 321 792 908 892 854 838 936 1008 1057 1094 1136 1157 1105 1117 1145 1147 1159 1179 1184 1206 1196 1198 1208 1202 1192 1148 1117 1067 1018 1050 1086 1284 1540 1619 1532 1336 1211 1242 1388 1402 1442 1492 1480 1432 1318 1364 1355 1466 1504 1518 1526 1512 1506 1563 1601 1638 2053 2000 1975 2016 2032 1996 1914 1840 1708 1556 1773 1728 1629 1639 1686 1772 1794 1765 1760 1747 1543 1244 1086 495 376
0 0 0 0 0 0 0 0 0 0 0 0 0 0 0 13 414 720 877 888 835 816 883 929 982 1022 1082 1094 1094 1087 1110 1125 1118 1146 1170 1194 1205 1212 1207 1208 1238 1257 1242 1221 1206 1201 1207 1328 1529 1632 1639 1414 1277 1238 1400 1458 1462 1506 1540 1554 1524 1424 1399 1416 1485 1537 1578 1608 1636 1660 1708 1710 1754 2120 1958 2034 2014 1951 1883 1850 1762 1631 1766 1748 1729 1720 1766 1852 1869 1718 1642 1492 1417 1154 1259 724 396
0 0 0 0 0 0 0 0 0 0 0 0 0 0 0 16 361 639 834 888 834 796 858 912 942 980 1009 1033 1042 1039 1065 1077 1070 1100 1132 1175 1200 1208 1214 1233 1287 1302 1305 1321 1277 1297 1311 1389 1595 1651 1686 1526 1379 1310 1368 1432 1429 1460 1498 1520 1504 1497 1541 1486 1406 1480 1592 1722 1762 1723 1722 1717 1716 1989 2127 2052 2046 2262 1932 1896 1818 1794 1748 1802 1799 1805 1856 1942 1900 1721 1593 1723 1340 844 594 457 425
0 0 0 0 0 0 0 0 0 0 0 0 0 0 0 0 136 535 766 838 836 787 836 897 938 960 974 987 979 984 1014 994 993 1026 1059 1094 1136 1176 1198 1227 1282 1312 1334 1361 1372 1349 1370 1409 1548 1637 1688 1618 1484 1370 1396 1448 1372 1389 1417 1458 1460 1434 1459 1439 1322 1378 1511 1680 1705 1676 1646 1659 1685 1866 2214 2048 2280 2185 2047 1936 1888 1942 1890 1894 1892 1902 1953 2027 1891 1651 1542 1152 950 682 532 464 419
0 0 0 0 0 0 0 0 0 0 0 0 0 0 0 0 1 400 665 800 831 787 785 874 924 951 971 972 958 961 966 982 975 1000 1009 1058 1088 1115 1150 1174 1239 1298 1344 1380 1420 1391 1378 1398 1486 1599 1674 1656 1574 1446 1377 1401 1337 1323 1325 1359 1387 1380 1392 1369 1306 1322 1430 1512 1572 1548 1534 1574 1704 1856 2068 2242 2241 2273 2216 2048 1987 1963 1932 1908 1922 1952 2038 2080 1877 1634 1335 1012 680 497 560 490 330
0 0 0 0 0 0 0 0 0 0 0 0 0 0 0 0 30 336 555 726 798 802 753 804 858 913 946 960 953 956 957 990 990 992 1010 1042 1090 1116 1108 1100 1169 1238 1285 1337 1398 1410 1388 1386 1400 1523 1629 1647 1598 1509 1565 1331 1296 1262 1270 1278 1274 1246 1286 1347 1377 1364 1372 1400 1389 1401 1381 1602 1716 1887 2062 2201 2306 2332 2338 2200 2132 2105 2082 2013 1982 2018 2063 2033 1815 1590 1036 769 492 479 390 53 735
0 0 0 0 0 0 0 0 0 0 0 0 0 0 0 0 74 310 480 627 664 744 772 721 780 838 911 968 935 924 939 960 980 987 998 1028 1079 1123 1125 1121 1136 1196 1241 1289 1356 1404 1396 1394 1371 1424 1531 1617 1586 1524 1516 1330 1273 1222 1201 1224 1177 1223 1239 1237 1258 1266 1287 1316 1284 1242 1236 1558 1726 1905 2093 2245 2412 2296 2316 2302 2252 2230 2208 2171 2119 2098 2108 2044 1882 1575 794 602 423 368 0 0 164
0 0 0 0 0 0 0 0 0 0 0 0 0 0 0 0 0 104 376 535 618 656 699 697 690 762 850 880 897 898 882 910 941 953 976 979 1008 1085 1114 1107 1118 1175 1220 1259 1303 1367 1396 1395 1372 1348 1410 1508 1546 1505 1430 1294 1178 1147 1111 1114 1134 1186 1256 1207 1184 1176 1173 1196 1184 1220 1277 1516 1716 1881 2032 2244 2392 2347 2276 2330 2351 2315 2297 2274 2229 2174 2146 2057 1904 1581 777 472 379 0 0 0 8
0 0 0 0 0 0 0 0 0 0 0 0 0 0 0 0 0 0 84 470 544 580 594 624 615 660 749 816 842 854 842 854 874 903 941 962 955 987 1045 1080 1083 1125 1192 1240 1277 1334 1376 1392 1380 1353 1348 1410 1494 1515 1469 1470 1182 1098 1023 1018 1050 1110 1160 1205 1205 1157 1121 1150 1196 1407 1482 1620 1707 1856 2016 2188 2324 2406 2284 2298 2328 2321 2307 2312 2313 2252 2144 2036 1936 1578 717 369 24 8 0 4 6
0 0 0 0 0 0 0 0 0 0 0 0 0 0 0 0 0 0 2 343 448 506 534 539 538 546 641 720 766 782 785 772 808 864 882 885 898 900 960 1009 1024 1048 1106 1154 1213 1271 1325 1342 1334 1338 1309 1356 1402 1496 1517 1458 1310 1169 1054 994 1047 1093 1088 1110 1150 1198 1132 1139 1220 1480 1664 1812 1833 1868 2006 2121 2289 2340 2294 2241 2239 2261 2276 2305 2324 2166 2044 1985 1904 1407 664 317 0 18 0 4 3
0 0 0 0 0 0 0 0 0 0 0 0 0 0 0 0 0 0 0 79 336 444 514 516 486 487 543 612 679 714 709 697 714 752 813 834 845 838 853 926 961 976 1001 1066 1137 1205 1249 1284 1300 1294 1264 1270 1336 1426 1494 1509 1413 1258 1124 1048 1048 1071 1074 1048 1046 1114 1164 1163 1169 1376 1698 1866 1962 1948 2000 2133 2243 2251 2266 2207 2170 2181 2206 2260 2210 2018 1956 1944 1857 1232 551 28 0 34 0 0 4
0 0 0 0 0 0 0 0 0 0 0 0 0 0 0 0 0 0 0 10 144 342 472 480 444 476 481 527 580 627 638 615 608 660 685 744 766 767 763 808 887 940 960 982 1035 1081 1153 1233 1273 1258 1240 1226 1291 1371 1431 1471 1450 1387 1206 1111 1038 1054 1062 1053 1045 1075 1122 1155 1164 1310 1602 1774 1977 2006 2033 2123 2224 2222 2232 2195 2167 2152 2162 2158 2050 1905 1902 1923 1723 1045 366 12 1 29 1 30 4
0 0 0 0 0 0 0 0 0 0 0 0 0 0 0 0 0 0 0 0 74 106 173 375 411 379 427 473 492 538 550 536 526 562 603 617 654 696 691 693 750 834 890 920 942 968 1023 1113 1199 1214 1218 1218 1250 1301 1359 1408 1434 1385 1279 1174 1080 1024 1020 1029 1064 1072 1119 1137 1164 1212 1476 1672 1852 2022 2053 2130 2220 2206 2216 2203 2163 2126 2118 2084 1959 1879 1901 1932 1658 842 174 4 12 11 1 6 177
0 0 0 0 0 0 0 0 0 0 0 0 0 0 0 0 0 0 0 0 0 6 56 104 258 278 42 375 446 467 489 476 466 468 504 528 527 536 591 614 626 656 706 770 794 845 916 1000 1089 1139 1147 1161 1189 1232 1288 1338 1362 1378 1330 1237 1145 1063 988 980 999 1030 1070 1106 1117 1170 1321 1528 1718 1929 2005 2091 2172 2182 2236 2214 2184 2126 2084 2076 2040 1962 1962 2004 1646 716 76 2 6 1 2 36 20
0 0 0 0 0 0 0 0 0 0 0 0 0 0 0 0 0 0 0 0 0 0 4 40 63 63 26 12 64 366 430 435 408 356 270 240 197 419 434 272 522 532 566 592 664 750 831 912 992 1054 1090 1096 1124 1180 1233 1273 1290 1325 1331 1283 1201 1097 997 932 955 968 997 1034 1073 1109 1170 1382 1570 1813 1950 2026 2073 2147 2184 2181 2144 2110 2133 2127 2083 2040 2062 2064 1541 640 2 1 2 3 2 22 10
0 0 0 0 0 0 0 0 0 0 0 0 0 0 0 0 0 0 0 0 0 0 0 4 29 39 20 5 6 42 106 381 373 353 315 201 146 116 110 142 192 223 235 333 558 693 785 862 929 970 1022 1038 1067 1129 1195 1231 1247 1274 1289 1269 1202 1102 1012 927 915 920 937 983 1034 1070 1102 1254 1445 1668 1854 1962 2005 2058 2075 2108 2073 2065 2133 2146 2119 2122 2069 1926 1282 500 0 0 1 8 3 8 13
0 0 0 0 0 0 0 0 0 0 0 0 0 0 0 0 0 0 0 0 0 0 0 0 0 2 13 2 0 3 31 58 61 78 301 271 118 82 75 86 132 197 210 254 387 614 732 815 874 937 964 984 1020 1085 1168 1208 1229 1241 1241 1236 1195 1138 1057 960 906 899 902 932 979 1031 1068 1168 1336 1496 1680 1857 1907 1935 2028 2052 2070 2102 2147 2161 2154 2116 1940 1585 942 71 9 0 8 3 4 6 3
0 0 0 0 0 0 0 0 0 0 0 0 0 0 0 0 0 0 0 0 0 0 0 0 0 0 0 0 0 0 1 21 27 30 53 89 96 53 46 53 77 135 200 212 304 491 658 759 830 897 934 950 975 1023 1125 1187 1220 1212 1200 1191 1200 1161 1102 1040 977 936 912 903 940 967 1024 1115 1284 1402 1561 1701 1806 1904 1962 2008 2088 2117 2164 2163 2115 1995 1637 1170 638 0 2 8 8 19 4 3 4
0 0 0 0 0 0 0 0 0 0 0 0 0 0 0 0 0 0 0 0 0 0 0 0 0 0 0 0 0 0 0 0 5 14 18 47 51 38 29 32 43 84 135 200 253 366 558 685 772 840 892 921 950 978 1084 1169 1201 1195 1176 1172 1175 1168 1140 1101 1064 1018 971 941 928 950 961 1020 1198 1354 1468 1598 1698 1840 1901 1958 1993 2063 2142 2119 2040 1908 1626 987 263 6 9 5 12 17 18 3 5
0 0 0 0 0 0 0 0 0 0 0 0 0 0 0 0 0 0 0 0 0 0 0 0 0 0 0 0 0 0 0 0 0 2 5 8 26 41 25 23 24 43 90 144 223 259 420 598 705 780 836 882 908 949 1027 1122 1186 1188 1181 1168 1162 1160 1144 1131 1090 1051 1022 989 969 971 954 960 1132 1324 1423 1528 1626 1734 1812 1874 1897 1940 2028 2044 1964 1853 1641 1113 562 258 15 10 18 18 29 14 4
0 0 0 0 0 0 0 0 0 0 0 0 0 0 0 0 0 0 0 0 0 0 0 0 0 0 0 0 0 0 0 0 0 0 0 0 3 18 21 20 17 18 66 97 148 206 315 454 607 704 780 831 878 905 975 1075 1152 1194 1197 1187 1172 1162 1146 1128 1112 1070 1047 1024 1010 999 995 989 1056 1264 1431 1468 1565 1646 1731 1796 1820 1868 1918 1928 1860 1792 1641 1240 611 25 18 19 13 12 22 28 10
0 0 0 0 0 0 0 0 0 0 0 0 0 0 0 0 0 0 0 0 0 0 0 0 0 0 0 0 0 0 0 0 0 0 0 0 0 4 11 14 13 10 18 48 70 126 247 394 553 628 708 780 835 878 1020 1086 1127 1186 1206 1193 1176 1160 1151 1136 1106 1104 1074 1060 1048 1048 1048 1052 1044 1216 1338 1430 1518 1600 1671 1706 1752 1807 1846 1827 1765 1710 1582 1327 847 406 288 249 19 10 14 28 23
0 0 0 0 0 0 0 0 0 0 0 0 0 0 0 0 0 0 0 0 0 0 0 0 0 0 0 0 0 0 0 0 0 0 0 0 0 0 4 9 10 6 11 36 52 101 178 323 477 599 660 714 793 850 908 1080 1122 1170 1206 1209 1188 1166 1161 1142 1135 1116 1108 1100 1104 1112 1103 1111 1082 1144 1280 1363 1468 1554 1612 1621 1650 1689 1756 1772 1722 1645 1536 1318 1020 780 588 490 446 122 19 20 25
0 0 0 0 0 0 0 0 0 0 0 0 0 0 0 0 0 0 0 0 0 0 0 0 0 0 0 0 0 0 0 0 0 0 0 0 0 0 0 4 5 2 4 19 54 93 127 248 433 572 644 685 739 814 866 967 1107 1159 1200 1222 1220 1192 1180 1170 1163 1156 1148 1151 1172 1192 1200 1175 1144 1100 1213 1306 1399 1506 1559 1582 1581 1614 1684 1734 1692 1618 1492 1315 1155 988 840 720 656 577 402 17 10
Wind_Speed
11 10 10 8 6 7 5 10 8 9 9 13 nan nan nan 10 11 nan 11 10 8 11 11 6 5 8 12 13 9 8 13 nan nan nan nan 12 9 6 8 6 3 5 7 8 9 6 7 9 5 4 7 8 10 10 10 10 11 12 12 12 12 13 13 12 12 12 12 12 12 12 12 11 10 9 8 7 6 5 5 4 3 3 2 2 2 3 3 3 5 6 7 5 5 6 6 7 8
10 9 8 8 8 8 9 8 10 10 11 nan nan nan nan 10 10 nan 11 12 12 9 9 7 6 7 9 2 2 4 10 11 9 8 nan 7 5 4 4 4 4 5 5 8 8 8 9 6 3 5 6 8 10 10 10 10 9 10 11 11 12 12 12 11 12 13 12 12 12 11 10 10 9 8 7 6 6 6 5 4 4 3 2 1 2 2 3 4 5 5 5 4 5 5 5 4 4
9 10 8 8 7 11 10 9 11 11 nan nan nan nan nan nan nan 14 14 14 10 5 4 6 5 6 5 5 6 10 nan 6 3 4 4 6 5 7 4 5 4 3 3 7 8 8 9 6 1 4 6 9 10 10 10 10 10 10 10 11 12 12 12 12 13 13 13 12 11 10 9 9 9 8 7 6 6 6 6 5 4 3 3 2 4 5 4 4 5 5 5 4 2 2 3 3 2
7 7 9 11 7 9 8 8 9 11 nan nan nan nan nan nan nan 13 12 8 6 3 4 4 6 14 7 6 4 3 4 3 4 4 4 8 9 4 4 4 3 2 4 7 7 8 8 4 3 5 5 6 11 11 10 10 10 10 11 11 12 11 12 12 13 13 13 12 10 9 9 9 9 9 8 8 8 7 6 5 4 3 3 4 3 3 4 5 6 5 5 4 4 3 2 3 2
1 5 8 10 9 7 6 9 10 9 nan nan nan nan 14 nan nan 10 9 7 6 5 4 5 6 11 9 3 6 5 7 0 4 3 3 6 1 4 3 2 2 2 3 6 7 7 6 2 5 8 10 11 11 11 9 9 9 9 10 11 12 12 13 13 12 12 12 11 10 10 10 10 9 9 9 9 8 7 6 5 4 3 3 4 5 4 4 6 5 4 3 3 3 2 2 2 1
3 4 9 9 7 7 7 10 11 11 nan nan nan nan nan nan nan 5 7 7 6 7 5 3 4 5 9 11 9 4 6 4 6 3 3 4 4 4 3 2 1 2 3 5 6 6 5 4 7 7 9 11 12 11 10 9 9 9 10 10 11 12 12 12 11 11 11 11 10 10 10 9 9 9 9 8 8 7 6 5 4 2 2 5 6 6 5 4 3 2 2 2 2 1 2 1 0
0 3 6 7 6 6 9 11 14 11 15 nan nan nan nan nan 5 3 5 6 10 7 10 4 4 2 3 9 6 4 5 5 6 5 2 3 3 3 3 2 1 1 2 4 5 5 4 5 9 11 12 13 12 11 10 10 10 10 10 10 10 10 10 10 10 10 10 10 10 10 9 9 9 8 8 7 7 6 5 4 2 1 3 6 7 7 7 5 4 3 2 1 1 1 2 2 2
3 5 3 5 8 7 8 10 13 7 10 nan nan nan nan 5 3 4 6 8 10 7 7 5 5 1 5 9 6 5 3 2 5 6 5 4 4 2 2 2 1 1 1 3 4 3 4 5 8 10 12 12 12 11 10 10 10 10 10 10 9 10 10 10 10 10 10 10 10 10 9 9 8 7 7 6 5 4 2 1 3 4 6 7 8 7 7 6 5 3 1 0 1 2 3 2 1
3 7 7 7 9 8 9 10 10 7 11 10 12 9 3 1 3 4 6 9 8 6 6 6 7 2 3 4 6 5 7 2 6 9 10 8 6 3 1 3 3 1 3 2 2 1 2 6 8 9 12 11 11 10 9 9 9 9 9 9 9 9 9 9 10 10 10 10 10 10 10 9 8 7 7 5 4 4 3 4 6 7 8 8 8 7 5 4 3 2 1 1 2 4 4 3 3
6 7 6 6 7 11 8 11 nan nan 7 7 9 6 1 1 3 6 4 6 7 5 8 5 6 2 3 2 5 6 4 2 7 10 10 11 9 5 5 6 4 5 3 2 1 1 1 9 10 12 12 12 11 10 9 9 9 9 9 9 9 9 10 10 10 10 10 10 10 10 9 9 8 8 7 7 6 6 6 7 8 9 10 9 9 7 7 5 3 2 1 2 3 4 4 5 4
7 6 5 6 8 10 8 nan nan nan nan nan 8 5 1 0 2 5 8 6 7 5 5 1 3 4 1 4 9 6 2 3 8 12 12 12 12 7 7 7 4 7 7 5 2 1 1 4 13 14 12 12 11 10 10 9 9 9 8 9 9 10 10 10 10 10 10 10 10 10 9 10 10 10 9 9 9 8 9 10 11 11 11 10 9 8 8 6 4 3 4 4 3 4 4 5 6
8 6 5 4 6 5 7 6 12 nan nan nan nan 1 2 2 2 3 6 6 7 3 7 7 7 4 3 1 5 1 2 1 5 12 14 12 9 9 7 5 6 6 7 7 4 2 0 2 3 10 12 12 12 11 11 10 10 9 9 9 10 10 10 10 10 10 10 10 10 10 11 11 12 12 13 12 12 12 13 13 13 13 12 12 12 10 9 8 7 7 7 6 5 5 5 5 7
6 6 3 5 7 6 9 9 9 8 10 nan nan 0 5 4 5 6 7 6 6 4 7 10 8 7 2 2 1 3 2 1 4 11 14 10 9 7 6 6 6 6 6 7 6 3 1 1 1 3 7 12 12 11 11 11 9 9 9 9 9 10 10 10 10 10 10 11 11 11 13 14 14 15 15 15 15 15 15 15 15 15 14 14 14 13 12 11 11 11 10 9 8 8 9 9 8
6 4 2 9 8 10 11 12 9 8 nan nan nan 5 7 5 5 7 6 7 10 8 6 5 4 1 0 5 6 5 3 3 5 9 9 10 9 8 8 7 8 6 6 7 6 4 2 0 2 4 6 6 7 9 11 10 9 9 10 9 9 10 10 10 10 11 11 12 12 13 15 16 16 17 18 18 18 18 18 18 18 18 17 16 16 15 14 15 15 15 13 11 10 11 11 11 11
5 5 5 10 11 9 12 10 nan nan nan nan 2 9 3 4 5 7 12 10 7 3 2 2 5 1 10 12 8 8 7 7 6 7 7 9 9 8 9 7 7 7 6 6 5 4 3 0 2 4 5 6 6 7 7 8 10 10 10 9 10 11 11 11 11 11 12 14 15 16 17 17 18 18 19 20 20 21 20 20 22 21 20 19 18 18 17 18 19 19 16 14 13 11 12 12 13
4 7 6 10 10 9 14 11 nan nan nan nan 9 7 2 3 6 9 8 3 1 0 6 4 6 4 4 6 2 11 13 10 6 6 7 8 8 8 8 7 6 6 5 5 4 2 1 1 3 4 5 6 7 7 8 8 9 10 10 10 11 11 12 11 12 13 14 16 17 18 18 19 19 20 21 21 22 22 22 22 23 23 21 20 19 19 19 19 20 21 19 17 17 16 14 15 17
4 6 7 7 14 7 11 nan nan nan nan 12 12 12 9 8 6 5 3 4 12 9 4 3 4 2 5 3 10 12 14 13 9 8 7 7 7 7 6 6 6 5 3 3 2 1 1 2 3 5 6 6 7 8 8 8 10 10 10 11 11 12 12 13 13 15 16 18 18 19 19 18 19 19 20 19 22 22 23 23 24 23 21 19 18 17 17 18 19 20 19 19 18 17 17 19 20
6 3 6 11 12 8 9 nan nan nan 9 15 18 16 13 11 11 9 6 5 4 8 2 2 6 8 6 7 14 11 13 16 12 10 7 7 7 7 7 7 7 7 5 3 1 1 1 3 3 4 6 7 8 9 9 10 11 10 11 11 11 12 13 14 14 15 18 18 19 19 18 19 18 18 19 20 19 19 20 23 23 22 20 18 17 15 15 16 17 17 18 21 17 13 19 17 18
5 4 4 11 5 7 3 5 nan nan 14 18 19 18 20 18 16 14 12 12 15 9 3 3 6 9 11 12 16 14 13 14 13 10 10 9 8 9 9 8 8 7 5 2 1 2 2 3 4 5 6 7 8 9 10 10 11 11 11 12 12 13 14 14 15 17 17 17 18 17 17 17 17 17 18 19 19 21 22 23 23 22 20 18 17 15 14 15 17 18 17 19 20 19 15 16 16
4 5 6 11 8 8 9 nan 11 nan nan 15 17 18 16 14 12 16 14 16 15 15 12 6 10 11 14 14 16 14 12 13 12 10 9 8 8 9 10 10 10 8 5 2 0 3 3 4 5 5 6 7 8 9 10 11 12 11 11 12 13 13 14 14 15 16 16 16 17 16 15 15 15 16 19 21 21 18 18 20 22 21 19 17 18 14 14 17 19 18 18 20 19 15 15 14 14
9 4 6 7 6 10 10 7 9 nan nan 14 14 14 15 18 15 18 17 13 14 10 13 22 18 20 20 19 18 15 14 13 12 10 8 7 6 6 6 8 8 7 3 3 3 2 3 5 5 6 6 8 8 9 10 11 12 11 11 12 13 13 14 14 15 16 16 16 15 15 14 14 14 15 17 17 17 18 17 18 18 18 17 17 15 15 15 16 16 16 16 17 17 16 16 15 12
13 4 8 8 11 9 6 8 nan nan nan 9 11 17 21 15 16 20 26 20 18 20 21 17 23 23 25 24 21 17 16 14 13 12 10 9 8 7 7 6 5 4 4 3 2 1 3 5 5 6 6 7 8 9 10 11 11 11 12 12 13 14 14 15 16 16 16 15 14 13 13 13 13 15 16 17 18 17 18 18 18 17 17 17 14 15 16 15 15 16 16 16 15 15 15 14 14
8 8 10 9 9 10 7 6 nan nan 6 7 14 18 13 22 22 24 29 25 18 23 21 18 23 27 26 24 24 20 17 15 15 13 12 10 7 5 6 6 5 4 2 3 3 3 4 5 6 6 6 6 7 9 10 11 11 12 12 13 13 15 15 15 16 16 15 14 13 13 12 13 13 14 16 17 18 16 17 17 17 16 16 16 14 14 15 15 14 15 14 14 12 12 11 14 13
10 12 14 11 7 5 nan nan nan nan 2 12 14 10 17 21 24 22 27 20 9 13 17 17 20 23 25 22 22 24 22 19 16 14 14 13 12 9 6 7 4 4 3 3 3 4 5 5 5 5 6 5 6 8 9 11 11 12 13 13 14 15 15 16 16 15 14 13 12 13 13 12 12 13 15 16 16 15 16 16 15 16 16 16 14 13 15 15 14 14 13 11 9 10 11 12 12
9 13 14 15 15 nan nan nan nan nan nan 9 8 12 20 26 20 16 29 20 12 16 20 20 20 23 23 22 20 18 17 15 14 12 9 6 8 7 4 3 4 3 2 4 4 5 6 6 6 5 6 6 7 8 10 11 12 12 13 13 14 14 15 15 14 14 14 13 13 12 14 13 13 13 15 15 15 15 16 16 16 16 16 16 14 15 14 14 14 13 12 9 8 8 10 11 11
14 14 20 17 15 nan nan nan nan nan nan nan 7 16 21 21 10 22 28 15 15 18 22 24 23 23 25 22 20 20 17 16 15 14 11 7 7 7 4 3 3 2 2 4 4 7 7 6 5 6 6 7 8 8 10 11 12 13 13 14 13 14 14 14 14 14 13 13 14 13 14 13 13 14 15 15 14 16 15 16 15 16 16 15 13 14 13 13 13 12 10 9 8 9 9 10 10
nan 20 nan nan nan nan nan nan nan nan nan nan nan 13 17 14 12 22 17 17 17 21 24 24 25 26 24 22 20 19 19 16 16 12 9 6 6 5 3 3 3 1 4 3 4 7 7 6 6 6 7 8 9 9 10 11 12 13 13 13 13 13 13 13 13 13 12 13 13 13 13 15 15 14 14 14 14 15 14 14 16 15 14 13 12 12 10 11 11 11 10 9 8 10 10 9 9
nan nan nan nan nan nan nan nan nan nan nan nan nan nan 11 11 16 23 17 17 21 24 26 26 24 24 23 23 23 20 16 13 11 11 10 7 4 3 3 2 1 2 3 2 5 8 6 5 5 6 6 8 8 10 10 11 12 13 13 13 13 12 11 11 11 11 12 12 13 13 14 14 16 15 14 14 14 14 14 14 14 13 14 12 10 10 9 9 9 8 8 8 9 9 8 8 7
nan nan nan nan nan nan nan nan nan nan nan nan nan nan 10 11 24 15 14 16 20 25 28 29 26 23 22 22 21 20 17 14 11 8 7 4 3 3 4 2 1 3 6 4 5 6 5 4 5 5 6 7 8 9 11 11 12 12 12 12 11 11 10 10 10 10 11 11 13 14 14 14 14 14 14 14 14 14 14 14 13 14 13 11 10 10 9 8 7 8 7 7 6 5 5 6 5
nan nan nan nan nan nan nan nan nan nan nan nan nan nan 14 18 19 9 15 16 17 21 25 28 25 23 21 21 21 20 19 16 13 10 6 4 5 6 5 1 2 4 6 6 5 5 6 6 5 7 6 7 8 9 10 11 11 11 11 11 10 9 9 9 10 9 10 11 12 14 14 14 14 13 13 13 13 13 14 14 15 15 13 12 11 10 10 9 8 7 6 4 3 3 4 4 4
nan nan nan nan nan nan nan nan nan nan nan nan nan nan nan nan 15 11 15 17 21 23 24 27 28 26 23 21 19 20 20 17 16 11 8 6 5 5 5 2 1 3 7 6 3 4 4 4 4 7 6 6 7 8 9 10 10 10 10 10 9 8 8 9 9 10 11 12 12 13 14 13 13 13 13 13 13 13 13 14 14 15 13 12 12 11 10 8 7 6 4 4 3 3 3 3 3
nan nan nan nan nan nan nan nan nan nan nan nan nan nan nan nan nan 12 14 18 19 21 24 28 29 30 27 24 21 20 19 16 13 10 7 7 7 6 6 4 2 2 3 4 4 6 4 3 3 4 5 5 6 7 8 8 8 8 8 8 8 7 8 8 9 10 11 12 12 12 13 12 12 12 12 11 12 12 13 13 14 13 13 12 12 10 8 8 6 6 4 5 4 2 2 3 2
nan nan nan nan nan nan nan nan nan nan nan nan nan nan nan nan nan 11 14 18 20 20 24 27 31 33 31 25 22 20 17 16 12 10 7 5 6 4 4 2 2 0 3 3 3 5 4 1 2 3 4 5 6 6 7 7 7 7 7 7 6 6 7 8 9 9 10 11 11 12 11 11 12 11 10 10 11 12 12 12 12 13 12 12 11 9 8 6 6 6 5 6 6 6 4 4 4
nan nan nan nan nan nan nan nan nan nan nan nan nan nan nan nan nan 11 14 18 19 20 24 26 28 30 32 26 22 21 20 18 17 14 11 6 3 5 3 2 0 1 2 2 4 4 2 1 2 3 3 4 5 5 6 6 6 6 6 7 6 7 7 8 8 8 10 10 10 11 10 10 10 10 9 10 11 11 11 12 12 12 11 10 9 8 7 5 6 7 8 6 7 8 8 7 7
nan nan nan nan nan nan nan nan nan nan nan nan nan nan nan 18 15 12 15 18 21 23 24 25 25 28 32 28 22 22 21 21 19 15 13 9 4 3 2 2 0 0 3 2 4 5 4 2 1 2 3 3 4 5 5 5 6 6 7 7 7 7 7 8 7 8 9 9 9 10 9 9 9 9 9 10 11 10 10 11 11 11 10 10 9 9 8 7 7 7 9 8 8 9 11 10 11
nan nan nan nan nan nan nan nan nan nan nan nan nan nan nan nan 14 13 12 15 19 21 19 18 19 23 29 28 21 19 21 23 18 14 12 8 4 2 2 2 1 1 3 4 3 3 2 2 0 1 2 3 2 3 4 4 5 5 6 7 8 8 8 7 7 8 8 9 9 9 8 8 9 9 10 11 11 11 11 11 10 9 10 10 10 11 12 11 12 11 11 11 10 9 9 11 11
nan nan nan nan nan nan nan nan nan nan nan nan nan nan nan nan 10 10 9 10 14 15 16 18 19 21 28 28 22 20 20 23 19 15 11 9 6 3 0 1 1 1 1 2 2 2 2 2 2 3 2 2 2 2 3 3 3 5 6 7 8 7 7 7 8 8 8 8 7 7 7 7 8 10 11 12 12 11 11 9 9 9 9 10 11 14 14 14 12 11 10 10 12 11 10 10 11
nan nan nan nan nan nan nan nan nan nan nan nan nan nan nan nan 13 11 10 10 16 15 14 17 19 20 24 29 25 21 20 12 14 13 11 8 4 4 2 0 1 2 1 1 1 2 2 2 3 2 0 2 3 3 2 3 4 4 4 6 6 7 7 7 8 8 7 7 6 6 6 7 9 11 12 13 12 12 10 10 10 10 9 10 11 11 11 11 11 11 10 9 8 13 13 12 13
nan nan nan nan nan nan nan nan nan nan nan nan nan nan nan nan nan 10 8 12 12 11 13 17 18 17 19 24 24 20 14 14 14 13 11 8 7 5 3 1 2 4 2 3 2 3 2 2 3 3 3 3 3 3 2 4 3 3 3 4 4 6 8 8 8 7 7 6 5 5 5 6 9 10 12 11 11 10 11 10 10 9 9 9 9 11 11 12 12 13 13 13 12 9 11 12 13
nan nan nan nan nan nan nan nan nan nan nan nan nan nan nan nan nan 7 8 7 6 9 12 11 10 17 20 24 26 22 18 15 16 16 14 10 8 6 4 2 2 1 2 1 1 3 2 2 4 5 4 4 4 5 5 4 3 2 3 3 3 4 6 8 9 8 6 5 6 4 4 6 8 10 11 10 8 9 10 10 9 9 9 9 10 11 12 13 12 12 13 14 13 13 10 nan 11
nan nan nan nan nan nan nan nan nan nan nan nan nan nan nan nan nan 18 11 6 8 7 11 18 18 15 11 10 13 16 18 17 15 14 12 9 9 9 7 4 2 2 3 3 4 3 2 5 5 6 5 6 4 5 6 4 1 0 2 5 6 5 8 7 7 6 4 4 4 3 6 6 8 10 10 9 7 9 9 9 8 9 8 8 8 10 12 14 14 14 15 15 16 15 nan nan 11
nan nan nan nan nan nan nan nan nan nan nan nan nan nan nan nan nan 10 12 13 8 8 9 17 18 14 9 11 15 14 12 10 12 15 16 13 11 8 6 6 7 6 6 5 4 4 3 3 4 5 4 5 6 7 7 4 3 3 3 2 1 1 2 2 3 3 2 1 4 2 2 6 9 9 10 9 7 7 8 8 8 8 8 6 8 10 11 11 13 15 17 17 17 nan nan nan nan
nan nan nan nan nan nan nan nan nan nan nan nan nan nan nan nan nan nan nan 10 6 10 12 16 15 14 13 13 12 14 14 12 10 11 11 8 7 7 9 10 12 10 9 6 4 4 4 3 4 6 6 5 6 6 7 5 4 3 5 4 3 3 2 3 4 4 2 1 2 3 4 6 8 10 9 9 7 7 7 7 8 8 8 7 6 8 11 14 15 16 15 15 nan nan nan nan nan
nan nan nan nan nan nan nan nan nan nan nan nan nan nan nan nan nan nan nan 12 8 10 15 17 17 17 17 14 14 13 13 13 12 14 15 15 12 11 12 13 11 11 10 7 7 6 8 7 7 7 6 6 6 5 6 6 5 4 4 4 3 2 2 3 1 3 5 5 3 3 4 5 7 8 9 9 8 7 7 7 8 8 8 6 7 11 12 12 13 12 14 15 nan nan nan nan nan
nan nan nan nan nan nan nan nan nan nan nan nan nan nan nan nan nan nan nan nan 14 13 16 18 19 19 18 17 16 15 14 14 13 11 13 15 15 14 11 10 11 10 8 9 9 9 9 9 8 7 7 7 6 8 7 6 5 5 4 3 3 1 1 1 6 7 6 6 4 4 5 5 6 7 8 8 8 8 7 8 9 9 8 6 7 8 10 11 14 15 13 nan nan nan nan nan nan
nan nan nan nan nan nan nan nan nan nan nan nan nan nan nan nan nan nan nan nan 8 11 15 18 21 20 19 18 16 16 13 11 11 12 11 11 13 13 13 12 10 8 6 7 9 9 10 10 10 11 9 7 8 9 7 7 7 6 4 3 4 3 3 4 8 7 7 7 5 5 5 6 6 7 8 8 7 7 7 8 9 10 8 6 7 9 10 10 12 13 14 nan nan nan nan nan nan
nan nan nan nan nan nan nan nan nan nan nan nan nan nan nan nan nan nan nan nan nan 12 19 22 21 21 21 19 16 16 14 13 11 11 10 10 10 11 10 11 10 8 5 5 4 5 7 10 12 13 12 9 8 9 9 9 8 6 5 5 5 5 5 6 9 8 8 9 6 5 5 5 7 8 9 8 7 7 8 9 9 8 6 6 7 9 11 11 11 13 13 nan nan nan nan nan 15
nan nan nan nan nan nan nan nan nan nan nan nan nan nan nan nan nan nan nan nan nan nan nan 16 17 19 nan 19 16 17 16 13 12 11 10 9 6 7 8 10 9 9 8 8 6 5 6 7 8 10 9 9 8 8 8 9 9 7 5 6 6 5 6 6 7 7 8 8 7 6 5 6 6 8 9 9 8 7 7 9 9 8 7 7 8 9 10 11 11 12 nan nan nan nan nan nan nan
nan nan nan nan nan nan nan nan nan nan nan nan nan nan nan nan nan nan nan nan nan nan nan nan nan nan nan nan nan 14 12 10 10 12 12 10 8 8 9 10 8 7 8 10 10 9 8 7 9 9 8 8 7 8 8 9 9 8 7 7 6 5 6 6 8 7 8 8 8 6 7 6 8 9 10 10 9 9 7 8 10 9 7 6 8 9 10 11 11 12 nan nan nan nan nan nan nan
nan nan nan nan nan nan nan nan nan nan nan nan nan nan nan nan nan nan nan nan nan nan nan nan nan nan nan nan nan nan 10 9 10 10 11 12 12 9 9 8 8 7 7 8 10 11 11 10 11 11 11 11 9 8 8 9 9 9 8 7 7 7 7 7 9 9 8 8 8 7 7 7 9 10 12 11 10 9 7 7 9 8 8 7 8 10 11 12 12 12 nan nan nan nan nan nan nan
nan nan nan nan nan nan nan nan nan nan nan nan nan nan nan nan nan nan nan nan nan nan nan nan nan nan nan nan nan nan nan nan nan nan 8 11 13 nan nan nan 7 7 8 10 11 12 13 12 13 13 12 12 12 10 8 8 7 8 8 8 8 8 7 8 9 9 9 9 8 8 8 9 10 11 12 12 13 11 8 7 7 7 7 8 8 9 10 11 12 nan nan nan nan nan nan nan nan
nan nan nan nan nan nan nan nan nan nan nan nan nan nan nan nan nan nan nan nan nan nan nan nan nan nan nan nan nan nan nan nan nan nan nan nan nan nan nan nan nan 7 10 12 13 14 14 14 14 14 15 15 15 14 11 10 8 8 9 9 9 9 8 9 10 10 10 9 10 10 10 10 11 13 13 14 15 14 11 9 8 7 7 8 8 10 11 11 12 nan nan nan nan nan nan nan nan
nan nan nan nan nan nan nan nan nan nan nan nan nan nan nan nan nan nan nan nan nan nan nan nan nan nan nan nan nan nan nan nan nan nan nan nan nan nan nan nan nan nan 12 13 15 16 16 15 15 15 14 15 15 16 15 13 12 11 10 10 11 11 11 11 11 11 11 11 11 11 12 13 13 15 15 15 16 16 14 11 9 8 8 7 9 9 10 10 12 nan nan nan nan nan nan nan nan
nan nan nan nan nan nan nan nan nan nan nan nan nan nan nan nan nan nan nan nan nan nan nan nan nan nan nan nan nan nan nan nan nan nan nan nan nan nan nan nan nan nan nan 14 14 16 15 16 16 15 15 15 14 15 15 15 14 13 12 11 12 12 12 13 13 13 14 14 13 12 13 14 14 15 17 18 19 18 16 14 11 10 9 9 8 8 9 10 11 11 nan nan nan nan nan nan nan
nan nan nan nan nan nan nan nan nan nan nan nan nan nan nan nan nan nan nan nan nan nan nan nan nan nan nan nan nan nan nan nan nan nan nan nan nan nan nan nan nan nan nan nan 14 16 16 16 16 16 15 14 14 14 14 14 15 15 14 13 13 13 13 14 15 16 17 15 14 13 13 13 15 18 19 20 20 19 18 15 13 12 11 10 8 7 8 9 11 nan nan nan nan nan nan nan nan
nan nan nan nan nan nan nan nan nan nan nan nan nan nan nan nan nan nan nan nan nan nan nan nan nan nan nan nan nan nan nan nan nan nan nan nan nan nan nan nan nan nan nan nan nan 17 17 16 17 15 13 11 10 11 12 13 14 15 15 16 15 15 15 16 16 18 18 16 16 15 14 15 17 19 18 20 21 21 20 17 15 14 13 12 9 6 7 9 11 12 13 14 nan nan nan nan nan
nan nan nan nan nan nan nan nan nan nan nan nan nan nan nan nan nan nan nan nan nan nan nan nan nan nan nan nan nan nan nan nan nan nan nan nan nan nan nan nan nan nan nan nan nan 18 16 17 17 16 15 13 11 12 13 13 14 14 15 15 16 16 15 16 17 17 17 18 18 18 17 17 19 19 20 21 22 21 20 18 16 14 13 12 9 6 6 9 11 12 13 13 14 17 nan nan nan
nan nan nan nan nan nan nan nan nan nan nan nan nan nan nan nan nan nan nan nan nan nan nan nan nan nan nan nan nan nan nan nan nan nan nan nan nan nan nan nan nan nan nan nan nan nan 17 17 15 15 14 12 12 12 12 13 15 14 14 14 15 15 16 17 16 17 16 18 19 20 20 21 19 19 21 22 22 21 20 19 17 14 14 13 10 7 7 9 11 12 12 12 13 17 18 nan nan
Wind_Direction
20 42 50 43 65 75 73 82 94 90 90 78 nan nan nan 89 93 nan 82 84 87 92 106 111 84 75 99 100 112 136 132 nan nan nan nan 93 94 81 102 93 74 73 73 95 107 92 78 58 0 312 315 313 308 308 312 313 318 318 318 323 324 325 327 329 330 331 331 326 324 326 324 320 313 309 307 309 312 319 327 333 328 325 319 310 286 265 247 225 220 215 225 223 181 169 164 181 176
29 35 36 50 61 64 76 90 96 99 89 nan nan nan nan 96 91 nan 77 74 82 81 102 109 112 142 140 138 82 106 142 147 132 122 nan 95 83 99 64 48 40 34 75 102 108 113 110 101 349 318 322 313 303 304 311 312 315 316 322 321 320 324 327 330 330 329 328 329 328 326 321 314 312 309 313 320 327 332 334 335 330 324 319 289 282 284 237 226 222 219 223 225 211 175 177 169 162
21 26 42 58 81 82 105 97 105 98 nan nan nan nan nan nan nan 98 95 90 82 75 104 128 149 136 119 125 113 120 nan 136 166 112 108 36 25 74 37 29 44 49 71 111 114 114 121 113 0 313 325 318 309 310 313 315 320 321 320 318 321 326 329 330 329 329 330 329 327 323 320 319 318 321 327 332 338 338 332 329 326 315 300 281 236 205 202 215 215 220 209 210 234 211 183 150 149
17 51 42 58 74 92 110 107 103 99 nan nan nan nan nan nan nan 105 102 91 77 54 87 88 122 112 86 115 86 164 142 109 81 17 55 34 101 58 39 20 53 87 114 115 114 120 122 93 323 325 332 341 313 311 315 321 322 320 318 321 324 329 331 331 332 332 329 327 329 330 331 329 332 335 337 340 338 339 331 326 317 301 273 252 257 255 214 213 216 208 204 187 199 209 186 143 174
36 64 69 81 101 110 116 110 101 103 nan nan nan nan 106 nan nan 110 102 87 74 64 78 108 136 134 121 93 70 70 73 115 350 80 108 125 126 47 36 36 56 87 109 119 123 125 121 20 344 352 344 335 310 311 316 319 320 318 321 325 329 331 332 333 334 332 329 333 339 342 339 338 340 341 343 339 340 338 335 329 317 288 242 216 213 218 217 227 219 215 207 202 203 202 161 154 181
184 124 103 120 118 115 111 117 109 96 nan nan nan nan nan nan nan 89 84 92 107 115 104 114 80 75 133 125 110 66 345 13 9 43 52 98 355 16 19 52 52 97 119 136 138 135 120 13 348 342 333 320 312 314 318 321 323 324 328 332 332 332 334 337 337 335 340 346 350 349 345 343 344 346 344 344 339 336 334 329 325 309 191 189 191 199 201 224 243 182 218 206 220 129 74 78 149
293 105 115 116 120 116 123 115 113 105 110 nan nan nan nan nan 95 61 91 119 124 144 119 88 321 287 161 109 131 123 104 319 1 8 104 1 337 1 9 50 54 93 142 146 151 138 104 360 341 336 333 324 318 321 325 329 332 334 334 336 334 337 341 343 342 345 352 357 357 357 354 355 354 354 353 347 339 335 331 337 355 97 135 153 168 177 191 195 208 204 222 215 177 121 94 65 57
121 141 116 162 156 135 111 116 109 116 122 nan nan nan nan 110 77 93 95 112 92 102 106 63 97 209 140 127 105 127 164 144 284 288 291 332 331 338 353 3 318 167 194 164 154 135 27 356 342 337 334 329 325 330 333 337 339 340 340 340 342 345 349 351 352 357 2 6 10 12 15 14 13 10 5 0 353 354 10 61 101 113 119 130 149 163 172 181 194 211 243 70 116 97 88 86 52
145 159 158 165 155 139 121 108 119 126 124 138 130 121 114 122 119 106 121 118 118 107 71 71 82 126 104 166 126 130 138 224 280 304 325 330 329 326 4 343 316 273 208 201 180 104 46 1 345 349 338 334 334 339 343 348 349 348 345 348 351 355 1 2 4 8 12 21 26 31 32 32 29 27 28 27 38 64 96 109 112 111 114 123 134 145 154 169 187 211 233 124 76 66 68 76 60
179 166 160 167 155 126 130 121 nan nan 131 134 135 139 192 115 141 128 116 98 88 80 107 104 97 30 316 168 112 122 94 334 305 315 331 336 324 322 324 333 319 302 278 256 227 358 62 355 351 354 343 344 346 352 356 0 1 354 351 356 1 8 12 13 15 20 27 33 38 42 43 44 44 48 52 58 71 90 105 106 102 103 109 116 127 133 135 138 159 164 126 90 77 83 76 73 69
194 173 156 171 161 139 123 nan nan nan nan nan 151 153 336 63 135 130 105 92 91 87 92 21 141 349 297 124 134 140 64 337 318 329 335 332 324 312 317 334 323 328 324 317 295 256 346 14 360 346 348 354 0 4 7 10 8 0 359 6 13 18 20 22 26 30 36 43 48 51 54 56 60 65 71 76 84 97 103 99 99 102 107 114 117 121 119 119 120 95 82 77 76 65 63 60 62
185 148 150 148 139 130 111 117 136 nan nan nan nan 236 74 336 180 98 76 44 90 81 95 84 48 45 259 71 122 117 29 352 310 322 331 324 313 319 314 321 334 337 330 323 313 286 85 24 1 355 357 6 11 12 13 14 12 8 8 18 22 24 27 29 32 38 46 52 58 62 65 68 73 76 80 83 89 93 93 93 96 99 103 107 108 110 107 104 96 82 72 70 64 63 59 49 54
169 139 131 139 118 121 109 117 107 131 151 nan nan 221 337 343 31 32 50 83 75 52 87 94 4 85 33 18 10 323 351 32 301 322 327 322 306 304 304 316 328 325 328 329 320 301 258 185 110 57 32 15 19 17 15 17 17 16 20 28 33 31 33 36 38 46 54 62 65 69 74 77 78 81 84 86 88 90 92 93 95 98 101 100 99 100 98 91 88 80 72 71 69 62 56 58 58
172 111 110 103 112 100 107 95 88 115 nan nan nan 326 1 10 45 14 30 42 56 55 93 356 37 26 28 326 349 350 347 334 314 323 321 313 303 294 305 315 323 322 333 335 328 313 300 261 121 82 67 62 67 33 22 22 24 25 30 39 40 40 39 41 45 52 63 68 72 75 79 80 81 82 85 87 89 91 94 96 98 100 99 97 95 93 92 89 87 82 79 77 76 71 71 64 70
156 155 137 102 102 116 101 77 nan nan nan nan 24 335 27 105 345 23 20 21 68 108 352 35 59 19 67 10 13 359 337 330 319 318 305 300 294 289 301 314 321 322 331 338 324 317 323 328 80 117 102 103 88 89 84 54 31 36 41 46 48 48 48 49 52 61 69 75 79 81 83 84 86 87 88 89 92 95 94 96 99 99 98 98 96 94 93 93 93 92 83 81 78 83 96 86 74
155 180 136 107 99 107 93 71 nan nan nan nan 20 339 336 106 25 6 64 91 63 305 344 43 97 118 80 59 23 334 320 315 308 303 290 291 279 274 291 310 316 323 332 331 324 321 265 151 135 127 108 106 94 103 93 91 55 46 52 53 54 55 57 59 62 70 76 82 85 88 89 94 95 96 92 95 96 96 97 95 94 97 98 96 95 94 92 92 92 92 90 82 76 65 69 74 81
194 181 135 110 109 91 90 nan nan nan nan 54 21 357 10 32 51 94 37 350 329 354 14 77 25 183 355 117 314 315 315 309 303 300 290 267 270 272 281 298 308 314 326 331 328 340 171 151 133 136 108 106 98 104 105 103 85 57 68 63 60 62 68 67 73 76 83 88 93 93 95 105 109 106 107 108 99 102 98 95 96 96 97 96 95 92 89 89 90 93 93 88 85 76 69 67 68
239 158 122 101 90 94 74 nan nan nan 66 50 26 20 353 1 28 42 357 26 14 351 18 313 206 233 267 283 293 307 311 313 314 311 301 281 276 286 299 309 316 330 331 320 350 126 145 135 128 127 118 104 107 113 114 111 107 84 110 105 101 89 82 82 91 103 96 108 95 101 108 107 105 108 108 107 103 100 103 102 99 96 95 94 93 91 90 87 89 88 87 84 86 69 84 76 79
241 190 131 100 75 64 73 110 nan nan 95 46 42 34 10 12 357 27 8 19 355 358 9 306 269 268 278 294 301 310 318 314 317 320 316 310 303 312 313 312 322 320 328 314 147 101 121 140 133 127 118 111 109 115 116 115 113 122 116 113 111 97 102 100 109 105 114 108 115 110 107 108 109 109 109 102 99 96 96 99 98 98 98 97 97 94 87 89 88 84 88 90 74 76 46 73 76
198 212 114 99 89 113 115 nan 113 nan nan 65 52 55 43 15 9 20 13 5 0 356 341 332 323 321 316 313 312 317 319 317 318 320 319 318 311 314 317 324 324 330 328 334 175 144 117 127 131 130 111 110 111 117 120 118 120 124 118 117 114 115 111 113 110 113 111 109 110 110 109 109 107 109 105 101 100 104 100 99 101 104 105 103 101 92 86 83 85 89 89 90 94 86 78 61 53
227 184 110 132 116 100 124 93 84 nan nan 71 66 67 59 35 23 18 353 351 30 32 21 347 355 338 331 330 324 325 325 321 321 321 312 307 300 296 311 322 325 316 299 224 188 125 99 127 134 123 121 116 112 117 117 118 123 126 119 117 119 121 117 118 112 111 109 107 109 110 113 111 111 107 110 110 108 105 103 98 96 95 95 92 91 88 82 75 77 78 81 79 77 82 83 78 74
220 76 100 142 173 171 115 146 nan nan nan 96 80 54 63 53 43 28 357 2 27 31 25 21 340 335 334 336 333 329 331 328 329 327 326 319 318 315 307 300 288 280 256 201 146 113 103 124 120 126 121 116 115 117 118 119 124 121 117 118 120 123 119 117 115 112 113 111 114 116 118 114 112 109 112 108 105 103 100 98 96 95 95 91 86 84 81 77 71 69 68 72 72 78 80 82 77
177 168 135 141 153 155 177 167 nan nan 139 98 73 76 76 49 51 37 14 15 38 32 13 357 344 338 339 335 330 333 334 335 338 335 326 319 312 316 311 304 311 311 249 177 173 140 124 114 120 133 116 126 120 128 132 124 123 124 123 121 120 120 120 118 116 116 115 116 116 118 115 111 108 107 107 105 103 102 98 97 95 95 93 91 86 85 85 81 77 75 75 75 77 78 85 83 78
181 170 189 175 190 136 nan nan nan nan 11 69 83 83 59 60 59 49 36 34 42 8 354 349 338 326 327 337 343 337 337 338 343 336 333 333 329 331 325 329 320 254 209 189 174 150 138 124 130 130 129 125 125 124 129 125 129 126 121 118 118 117 118 116 116 116 119 116 116 114 111 110 106 103 102 99 97 99 94 93 91 90 87 84 82 77 78 77 74 69 70 74 80 84 83 86 78
194 162 184 170 171 nan nan nan nan nan nan 83 97 70 66 56 64 44 51 37 19 348 339 334 336 333 333 336 341 332 330 332 331 325 313 306 313 301 303 312 305 255 208 189 178 150 139 146 146 116 123 110 120 129 124 129 129 126 126 124 122 112 118 115 117 118 113 113 111 109 103 105 104 101 96 92 90 87 86 85 83 79 77 73 71 71 62 69 66 65 62 62 62 67 70 70 72
201 175 193 181 184 nan nan nan nan nan nan nan 80 77 66 64 100 55 50 36 10 347 343 341 339 343 343 341 339 332 332 338 330 323 323 305 307 308 329 339 305 287 184 205 180 146 154 155 137 112 113 120 118 115 127 126 128 126 124 123 125 119 117 117 117 115 112 111 106 105 101 99 99 95 92 90 83 81 79 81 80 75 71 68 63 63 55 51 56 52 54 52 50 59 64 66 68
nan 210 nan nan nan nan nan nan nan nan nan nan nan 77 83 84 73 85 68 33 2 352 351 351 347 354 352 342 338 337 335 340 345 325 304 300 313 327 337 339 356 278 220 191 168 158 159 154 136 127 126 118 129 114 127 129 130 126 127 130 129 123 123 121 117 114 110 107 106 102 100 96 95 93 90 86 83 81 78 75 75 74 73 68 63 62 53 45 42 40 41 43 44 53 59 59 59
nan nan nan nan nan nan nan nan nan nan nan nan nan nan 86 94 100 77 64 31 6 356 357 356 357 357 357 349 342 339 339 336 331 337 340 327 323 334 350 23 31 221 211 170 171 174 164 135 132 129 127 124 122 121 126 130 127 128 129 135 127 127 124 119 113 108 103 105 103 99 95 95 91 91 86 85 82 80 77 70 70 67 67 64 54 53 49 40 33 31 25 28 33 36 55 63 61
nan nan nan nan nan nan nan nan nan nan nan nan nan nan 140 99 77 83 62 35 13 3 1 358 359 -0 358 354 345 341 341 334 335 348 1 346 324 341 14 64 162 186 181 184 185 179 150 144 137 129 135 130 123 120 128 132 133 131 130 129 130 126 122 116 109 103 101 100 101 97 95 91 91 87 84 80 79 74 72 69 66 60 59 49 39 35 36 29 24 27 14 16 27 31 45 60 68
nan nan nan nan nan nan nan nan nan nan nan nan nan nan 111 80 82 91 55 37 23 11 7 2 358 1 3 357 352 345 341 343 352 1 5 7 358 359 6 23 143 162 186 191 196 170 167 163 149 151 140 129 123 129 132 136 131 130 128 133 127 127 122 114 107 104 100 99 99 97 95 91 89 86 81 77 72 68 64 59 55 54 46 35 28 21 25 17 23 24 29 6 13 25 59 55 64
nan nan nan nan nan nan nan nan nan nan nan nan nan nan nan nan 83 80 52 37 23 19 15 8 359 359 4 2 354 351 353 357 360 1 17 17 6 12 0 317 93 140 188 202 182 179 178 161 154 147 132 130 132 127 124 128 133 131 131 132 130 124 119 112 111 105 100 100 99 98 94 92 88 82 77 72 66 57 54 50 43 42 27 16 12 14 15 13 7 18 17 38 1 13 51 46 31
nan nan nan nan nan nan nan nan nan nan nan nan nan nan nan nan nan 63 55 48 35 28 22 16 5 359 2 3 357 353 356 358 3 8 21 17 9 16 4 356 27 131 190 208 198 196 178 163 122 124 120 114 120 119 124 125 126 130 131 128 128 120 114 108 105 104 104 103 102 101 93 92 87 80 73 65 61 50 43 39 35 25 12 360 3 1 1 10 10 11 18 13 37 20 41 59 38
nan nan nan nan nan nan nan nan nan nan nan nan nan nan nan nan nan 74 63 48 46 36 27 20 12 1 359 4 358 351 349 359 6 8 7 17 26 27 24 13 33 59 207 208 207 205 192 152 78 84 84 84 101 105 115 126 132 130 127 123 116 114 109 107 108 107 106 106 105 103 96 90 86 77 68 56 49 43 34 29 25 12 360 358 357 360 6 10 6 16 18 20 13 21 15 48 58
nan nan nan nan nan nan nan nan nan nan nan nan nan nan nan nan nan 66 69 54 47 41 29 22 16 5 359 0 0 351 353 357 8 7 358 355 40 36 47 65 52 242 192 194 206 216 217 193 92 93 114 88 96 99 102 114 125 129 134 132 128 117 109 114 112 108 104 104 104 100 95 89 85 73 59 47 39 32 19 18 14 7 0 357 0 5 22 10 19 22 35 20 18 15 19 22 41
nan nan nan nan nan nan nan nan nan nan nan nan nan nan nan 139 111 68 57 53 43 39 31 24 17 7 357 356 1 357 354 2 11 9 358 343 354 48 85 84 198 225 181 205 212 207 211 213 170 62 80 76 83 97 104 117 132 142 146 138 128 123 123 116 112 107 105 105 104 95 90 84 77 63 49 37 31 23 10 8 10 10 3 1 6 21 31 33 33 31 37 35 26 29 24 18 23
nan nan nan nan nan nan nan nan nan nan nan nan nan nan nan nan 113 99 83 56 47 44 36 29 20 8 358 352 359 360 357 10 7 1 2 348 334 352 111 126 145 161 186 210 225 220 227 255 307 65 56 50 85 114 129 132 143 139 134 142 131 123 122 119 116 111 109 102 99 91 83 72 63 52 37 28 24 16 8 11 17 9 8 5 17 34 43 43 42 38 41 37 37 35 28 19 21
nan nan nan nan nan nan nan nan nan nan nan nan nan nan nan nan 108 81 80 78 74 57 34 28 17 8 1 351 356 5 3 13 358 355 5 2 353 337 32 134 122 117 186 234 252 258 273 312 322 21 33 33 66 98 111 117 118 132 131 113 111 122 123 125 120 118 113 107 95 86 73 59 47 38 29 21 19 16 13 14 16 16 15 22 35 45 44 44 43 38 37 36 30 33 35 20 25
nan nan nan nan nan nan nan nan nan nan nan nan nan nan nan nan 158 152 150 98 62 48 36 27 15 9 5 354 356 5 12 355 343 348 3 7 3 354 335 158 82 31 57 321 329 300 289 310 1 13 349 57 62 65 87 96 100 98 104 113 131 135 136 124 120 123 119 123 104 87 68 47 34 26 21 15 14 13 12 14 17 18 20 36 46 47 46 46 39 32 28 26 31 21 26 19 14
nan nan nan nan nan nan nan nan nan nan nan nan nan nan nan nan nan 189 134 79 62 55 39 23 11 11 6 1 1 3 357 3 350 352 357 6 11 5 356 6 54 48 27 12 350 264 277 341 12 10 29 27 45 43 55 67 92 103 100 140 118 139 145 147 149 147 151 130 111 85 57 39 27 22 15 7 8 12 15 14 20 16 25 33 37 41 40 40 37 30 24 23 21 21 21 18 10
nan nan nan nan nan nan nan nan nan nan nan nan nan nan nan nan nan 182 126 104 148 137 112 100 64 25 8 5 2 359 7 2 359 356 357 2 11 9 13 16 27 92 127 124 313 344 301 333 352 6 11 16 25 29 36 48 53 86 131 166 165 147 165 171 173 173 161 140 101 75 51 28 20 17 8 2 4 10 13 19 17 13 24 31 32 34 35 36 30 25 21 23 10 13 26 nan 4
nan nan nan nan nan nan nan nan nan nan nan nan nan nan nan nan nan 180 165 178 191 172 140 127 111 80 43 17 3 1 7 8 2 352 352 2 11 19 18 11 333 34 48 31 6 350 261 337 343 351 348 359 10 11 18 20 4 179 184 206 206 190 187 195 186 164 153 117 104 66 41 12 10 10 3 358 356 9 15 20 13 13 14 25 28 32 31 31 22 19 14 12 13 11 nan nan 6
nan nan nan nan nan nan nan nan nan nan nan nan nan nan nan nan nan 190 205 213 164 167 124 99 92 82 56 31 17 6 15 19 6 360 2 5 9 11 18 11 11 25 30 31 20 15 341 305 312 324 325 334 351 360 1 350 353 339 291 280 269 201 124 162 103 102 178 97 61 38 332 359 1 3 358 353 358 359 11 13 8 1 6 10 24 28 24 19 18 17 16 12 16 nan nan nan nan
nan nan nan nan nan nan nan nan nan nan nan nan nan nan nan nan nan nan nan 213 151 169 126 103 100 97 76 54 32 12 7 15 22 7 357 7 18 12 19 19 20 18 24 10 359 11 1 309 321 331 331 332 337 341 349 344 333 332 346 354 7 14 38 111 165 200 216 193 238 315 343 341 358 358 350 349 351 358 3 1 359 359 356 359 15 15 20 22 17 18 10 11 nan nan nan nan nan
nan nan nan nan nan nan nan nan nan nan nan nan nan nan nan nan nan nan nan 225 193 161 128 119 112 100 81 68 51 30 9 13 22 17 5 7 10 13 15 22 25 22 12 353 355 349 352 346 335 337 322 323 324 330 344 340 331 330 330 346 350 357 27 70 225 228 239 251 278 307 303 329 343 348 345 345 345 350 346 347 349 346 346 350 9 25 24 21 15 16 12 14 nan nan nan nan nan
nan nan nan nan nan nan nan nan nan nan nan nan nan nan nan nan nan nan nan nan 196 149 126 122 113 96 85 75 60 45 23 13 20 23 15 7 9 15 19 21 30 25 2 355 355 347 348 344 334 329 329 322 323 336 338 338 323 320 330 328 329 309 347 165 235 242 249 254 284 276 299 316 321 329 334 334 339 342 333 336 339 339 340 351 12 18 23 15 15 8 3 nan nan nan nan nan nan
nan nan nan nan nan nan nan nan nan nan nan nan nan nan nan nan nan nan nan nan 178 121 114 117 110 98 90 83 72 61 42 23 23 29 29 19 10 12 15 18 13 16 3 1 355 338 336 330 334 336 341 324 320 332 332 333 332 314 319 328 343 313 285 255 253 257 256 259 279 286 297 306 312 317 325 327 328 330 325 325 330 339 343 346 9 12 10 13 13 9 2 nan nan nan nan nan nan
nan nan nan nan nan nan nan nan nan nan nan nan nan nan nan nan nan nan nan nan nan 143 151 144 133 128 114 101 85 70 51 33 21 17 25 29 16 11 9 15 14 359 340 343 340 328 324 329 337 341 346 329 326 332 330 336 336 329 329 333 341 339 317 282 267 261 257 259 269 282 299 320 312 315 318 327 324 327 331 323 326 333 325 337 359 359 12 11 6 1 353 nan nan nan nan nan 353
nan nan nan nan nan nan nan nan nan nan nan nan nan nan nan nan nan nan nan nan nan nan nan 135 121 109 nan 101 90 71 56 44 27 12 14 14 8 7 357 22 15 360 347 340 329 316 315 319 323 339 341 339 334 336 333 336 336 345 331 327 339 344 317 286 290 289 281 285 288 297 297 293 302 302 319 321 328 331 326 330 327 316 316 333 358 5 6 6 357 349 nan nan nan nan nan nan nan
nan nan nan nan nan nan nan nan nan nan nan nan nan nan nan nan nan nan nan nan nan nan nan nan nan nan nan nan nan 96 80 61 40 23 6 351 355 2 357 12 4 357 352 341 332 321 315 315 321 331 340 339 340 337 343 343 339 339 330 325 334 325 316 297 285 288 280 279 282 288 286 302 298 302 321 327 336 330 322 322 320 325 334 338 358 356 3 360 354 348 nan nan nan nan nan nan nan
nan nan nan nan nan nan nan nan nan nan nan nan nan nan nan nan nan nan nan nan nan nan nan nan nan nan nan nan nan nan 106 84 61 35 13 359 351 347 349 357 345 345 342 327 318 312 309 312 320 329 335 327 329 333 343 344 346 337 325 317 316 317 324 300 287 291 287 283 284 293 300 310 313 326 319 335 318 314 311 317 317 325 330 332 347 352 353 355 351 346 nan nan nan nan nan nan nan
nan nan nan nan nan nan nan nan nan nan nan nan nan nan nan nan nan nan nan nan nan nan nan nan nan nan nan nan nan nan nan nan nan nan 38 18 1 nan nan nan 321 323 321 311 301 305 305 312 317 325 320 317 322 325 320 339 337 330 316 311 304 302 312 296 293 292 291 295 288 292 297 299 308 315 321 320 310 311 309 304 313 316 316 323 333 339 343 347 346 nan nan nan nan nan nan nan nan
nan nan nan nan nan nan nan nan nan nan nan nan nan nan nan nan nan nan nan nan nan nan nan nan nan nan nan nan nan nan nan nan nan nan nan nan nan nan nan nan nan 296 301 293 300 300 309 317 315 318 319 314 315 315 314 316 315 299 306 309 308 302 290 285 282 282 284 291 291 292 297 299 305 309 311 305 312 311 303 303 302 311 299 312 323 334 339 341 335 nan nan nan nan nan nan nan nan
nan nan nan nan nan nan nan nan nan nan nan nan nan nan nan nan nan nan nan nan nan nan nan nan nan nan nan nan nan nan nan nan nan nan nan nan nan nan nan nan nan nan 286 294 302 307 317 311 307 311 309 303 308 314 313 302 299 296 302 304 299 295 295 292 288 292 291 281 281 285 290 300 303 302 304 301 302 304 298 295 294 298 291 303 315 324 335 336 328 nan nan nan nan nan nan nan nan
nan nan nan nan nan nan nan nan nan nan nan nan nan nan nan nan nan nan nan nan nan nan nan nan nan nan nan nan nan nan nan nan nan nan nan nan nan nan nan nan nan nan nan 305 309 305 302 299 304 310 306 312 312 307 304 297 297 296 291 295 295 297 294 292 285 283 278 275 278 278 282 286 297 300 299 297 301 302 298 292 278 281 283 286 311 313 328 328 320 326 nan nan nan nan nan nan nan
nan nan nan nan nan nan nan nan nan nan nan nan nan nan nan nan nan nan nan nan nan nan nan nan nan nan nan nan nan nan nan nan nan nan nan nan nan nan nan nan nan nan nan nan 305 298 289 289 297 304 314 323 319 308 308 299 299 286 282 287 289 285 281 279 279 278 276 281 286 284 286 291 292 291 294 297 299 298 295 291 283 274 278 283 293 312 322 319 315 nan nan nan nan nan nan nan nan
nan nan nan nan nan nan nan nan nan nan nan nan nan nan nan nan nan nan nan nan nan nan nan nan nan nan nan nan nan nan nan nan nan nan nan nan nan nan nan nan nan nan nan nan nan 283 291 295 297 301 310 309 306 312 312 313 308 294 284 277 275 274 275 276 276 277 279 285 286 285 285 284 288 290 296 298 298 298 297 294 275 270 272 273 283 298 308 314 314 326 329 331 nan nan nan nan nan
nan nan nan nan nan nan nan nan nan nan nan nan nan nan nan nan nan nan nan nan nan nan nan nan nan nan nan nan nan nan nan nan nan nan nan nan nan nan nan nan nan nan nan nan nan 288 294 290 296 307 313 320 329 334 323 315 297 291 287 285 281 274 274 269 272 276 280 282 281 282 281 281 280 289 291 295 298 299 298 298 286 276 278 283 290 299 304 308 316 326 329 333 331 334 nan nan nan
nan nan nan nan nan nan nan nan nan nan nan nan nan nan nan nan nan nan nan nan nan nan nan nan nan nan nan nan nan nan nan nan nan nan nan nan nan nan nan nan nan nan nan nan nan nan 282 285 296 303 307 316 336 334 322 310 296 291 298 291 284 274 269 267 273 274 279 279 281 281 278 275 282 286 289 294 299 295 292 296 286 279 279 284 288 303 302 304 315 324 328 317 327 331 338 nan nan